TimeEST,TemperatureF,Dew PointF,Humidity,Sea Level PressureIn,VisibilityMPH,Wind Direction,Wind SpeedMPH,Gust SpeedMPH,PrecipitationIn,Events,Conditions,WindDirDegrees,DateUTC
12:11 AM,27.0,24.6,91,29.53,5.0,Calm,Calm,-,N/A,Snow,Light Snow,0,2014-01-17 05:11:00
12:31 AM,27.1,24.6,90,29.53,3.0,ESE,3.5,-,N/A,Snow,Light Snow,120,2014-01-17 05:31:00
12:52 AM,27.0,24.6,91,29.53,5.0,SE,3.5,-,N/A,Snow,Light Snow,130,2014-01-17 05:52:00
1:12 AM,27.0,24.6,91,29.53,7.0,Calm,Calm,-,N/A,,Overcast,0,2014-01-17 06:12:00
1:32 AM,26.6,24.3,91,29.53,10.0,Calm,Calm,-,N/A,,Overcast,0,2014-01-17 06:32:00
1:52 AM,27.0,24.6,91,29.53,10.0,Calm,Calm,-,N/A,,Overcast,0,2014-01-17 06:52:00
2:12 AM,27.0,24.8,92,29.54,7.0,Calm,Calm,-,N/A,,Overcast,0,2014-01-17 07:12:00
2:32 AM,27.0,24.6,91,29.54,5.0,Calm,Calm,-,N/A,Snow,Light Snow,0,2014-01-17 07:32:00
2:52 AM,27.0,24.6,91,29.55,5.0,Calm,Calm,-,N/A,Snow,Light Snow,0,2014-01-17 07:52:00
3:12 AM,27.0,24.6,91,29.55,5.0,Calm,Calm,-,N/A,Snow,Light Snow,0,2014-01-17 08:12:00
3:32 AM,25.7,23.7,92,29.55,7.0,Calm,Calm,-,N/A,Snow,Light Snow,0,2014-01-17 08:32:00
3:52 AM,26.1,24.3,93,29.55,7.0,Calm,Calm,-,N/A,,Overcast,0,2014-01-17 08:52:00
4:13 AM,25.7,24.1,94,29.56,7.0,Calm,Calm,-,N/A,,Overcast,0,2014-01-17 09:13:00
4:33 AM,25.9,24.1,93,29.56,7.0,Calm,Calm,-,N/A,,Overcast,0,2014-01-17 09:33:00
4:53 AM,26.1,24.4,94,29.57,7.0,Calm,Calm,-,N/A,,Overcast,0,2014-01-17 09:53:00
5:13 AM,26.1,24.6,94,29.57,7.0,Calm,Calm,-,N/A,,Overcast,0,2014-01-17 10:13:00
5:33 AM,26.4,24.8,94,29.57,7.0,Calm,Calm,-,N/A,,Overcast,0,2014-01-17 10:33:00
5:53 AM,26.8,25.2,94,29.58,7.0,Calm,Calm,-,N/A,,Overcast,0,2014-01-17 10:53:00
6:13 AM,27.0,24.8,92,29.59,7.0,Calm,Calm,-,N/A,,Overcast,0,2014-01-17 11:13:00
6:33 AM,26.8,25.2,94,29.59,7.0,Calm,Calm,-,N/A,,Overcast,0,2014-01-17 11:33:00
6:53 AM,27.7,25.7,92,29.60,7.0,Calm,Calm,-,N/A,,Overcast,0,2014-01-17 11:53:00
7:14 AM,28.0,26.1,92,29.61,5.0,Calm,Calm,-,N/A,,Overcast,0,2014-01-17 12:14:00
7:34 AM,27.3,25.5,93,29.61,4.0,Calm,Calm,-,N/A,Snow,Light Snow,0,2014-01-17 12:34:00
7:54 AM,26.8,25.5,95,29.62,2.5,Calm,Calm,-,N/A,Snow,Light Snow,0,2014-01-17 12:54:00
8:14 AM,27.5,26.4,96,29.63,1.8,ESE,3.5,-,N/A,Snow,Light Snow,120,2014-01-17 13:14:00
8:34 AM,28.8,27.3,94,29.64,1.0,West,10.4,-,N/A,Snow,Light Snow,260,2014-01-17 13:34:00
8:54 AM,28.2,26.6,94,29.65,0.5,WSW,6.9,-,N/A,Snow,Light Snow,240,2014-01-17 13:54:00
9:14 AM,27.5,25.9,94,29.66,1.0,WSW,9.2,-,N/A,Snow,Light Snow,240,2014-01-17 14:14:00
9:34 AM,27.5,25.0,90,29.67,2.0,WSW,8.1,-,N/A,Snow,Light Snow,240,2014-01-17 14:34:00
9:54 AM,27.5,24.6,89,29.68,2.5,SW,6.9,17.3,N/A,Snow,Light Snow,230,2014-01-17 14:54:00
10:14 AM,27.0,24.3,90,29.69,3.0,WSW,9.2,-,N/A,Snow,Light Snow,240,2014-01-17 15:14:00
10:35 AM,26.6,23.0,86,29.70,7.0,SW,8.1,16.1,N/A,,Overcast,230,2014-01-17 15:35:00
10:55 AM,26.8,23.4,87,29.71,5.0,SW,9.2,-,N/A,Snow,Light Snow,220,2014-01-17 15:55:00
11:15 AM,26.6,23.0,86,29.71,3.0,SW,6.9,-,N/A,Snow,Light Snow,220,2014-01-17 16:15:00
11:35 AM,26.6,23.0,86,29.71,3.0,SW,10.4,-,N/A,Snow,Light Snow,220,2014-01-17 16:35:00
11:55 AM,26.2,23.0,88,29.72,4.0,SSW,9.2,-,N/A,Snow,Light Snow,210,2014-01-17 16:55:00
12:15 PM,26.2,22.8,87,29.72,5.0,SW,9.2,-,N/A,Snow,Light Snow,220,2014-01-17 17:15:00
12:35 PM,26.1,22.3,86,29.72,5.0,SW,9.2,-,N/A,Snow,Light Snow,220,2014-01-17 17:35:00
12:55 PM,25.7,22.1,86,29.72,5.0,SSW,10.4,-,N/A,Snow,Light Snow,200,2014-01-17 17:55:00
1:16 PM,25.7,21.7,85,29.72,7.0,SSW,8.1,-,N/A,Snow,Light Snow,210,2014-01-17 18:16:00
1:36 PM,25.7,21.9,86,29.72,7.0,SW,8.1,-,N/A,Snow,Light Snow,220,2014-01-17 18:36:00
1:56 PM,25.7,21.9,86,29.72,4.0,SW,9.2,-,N/A,Snow,Light Snow,220,2014-01-17 18:56:00
2:16 PM,25.7,21.7,85,29.72,4.0,SSW,6.9,-,N/A,Snow,Light Snow,200,2014-01-17 19:16:00
2:36 PM,25.7,22.1,86,29.73,4.0,SSW,8.1,-,N/A,Snow,Light Snow,200,2014-01-17 19:36:00
2:56 PM,25.7,22.1,86,29.73,4.0,SSW,6.9,-,N/A,Snow,Light Snow,210,2014-01-17 19:56:00
3:11 PM,25.7,22.1,86,29.74,3.0,SSW,9.2,-,N/A,Snow,Light Snow,200,2014-01-17 20:11:00
3:31 PM,25.7,22.1,86,29.74,2.5,South,4.6,-,N/A,Snow,Light Snow,180,2014-01-17 20:31:00
3:51 PM,26.2,22.6,86,29.75,1.8,SSW,6.9,-,N/A,Snow,Light Snow,210,2014-01-17 20:51:00
4:12 PM,25.9,23.2,90,29.76,1.2,South,4.6,-,N/A,Snow,Light Snow,190,2014-01-17 21:12:00
4:32 PM,25.5,22.8,89,29.77,1.8,SSE,5.8,-,N/A,Snow,Light Snow,160,2014-01-17 21:32:00
4:52 PM,24.8,22.1,89,29.77,1.2,SSE,4.6,-,N/A,Snow,Light Snow,160,2014-01-17 21:52:00
5:12 PM,24.4,21.9,90,29.78,1.0,South,3.5,-,N/A,Snow,Light Snow,170,2014-01-17 22:12:00
5:32 PM,24.3,21.9,91,29.79,1.2,SSE,3.5,-,N/A,Snow,Light Snow,150,2014-01-17 22:32:00
5:52 PM,23.9,21.7,91,29.79,3.0,SSE,3.5,-,N/A,Snow,Light Snow,150,2014-01-17 22:52:00
6:12 PM,23.9,21.2,89,29.80,2.0,SE,3.5,-,N/A,Snow,Light Snow,140,2014-01-17 23:12:00
6:32 PM,23.7,21.2,90,29.81,3.0,SSE,3.5,-,N/A,Snow,Light Snow,150,2014-01-17 23:32:00
6:52 PM,23.5,21.2,91,29.81,3.0,Calm,Calm,-,N/A,Snow,Light Snow,0,2014-01-17 23:52:00
7:12 PM,23.5,21.2,91,29.82,2.0,Calm,Calm,-,N/A,Snow,Light Snow,0,2014-01-18 00:12:00
7:32 PM,23.4,21.6,93,29.83,1.8,Calm,Calm,-,N/A,Snow,Light Snow,0,2014-01-18 00:32:00
7:53 PM,23.7,21.6,91,29.84,2.5,Calm,Calm,-,N/A,Snow,Light Snow,0,2014-01-18 00:53:00
8:13 PM,23.5,21.6,92,29.84,3.0,Calm,Calm,-,N/A,Snow,Light Snow,0,2014-01-18 01:13:00
8:33 PM,23.0,21.2,93,29.84,3.0,Calm,Calm,-,N/A,Snow,Light Snow,0,2014-01-18 01:33:00
8:53 PM,23.0,21.2,93,29.85,4.0,Calm,Calm,-,N/A,Snow,Light Snow,0,2014-01-18 01:53:00
9:13 PM,23.0,21.2,93,29.85,5.0,Calm,Calm,-,N/A,Snow,Light Snow,0,2014-01-18 02:13:00
9:33 PM,22.6,20.8,93,29.85,5.0,Calm,Calm,-,N/A,Snow,Light Snow,0,2014-01-18 02:33:00
9:53 PM,23.5,21.4,91,29.85,4.0,NNE,3.5,-,N/A,Snow,Light Snow,20,2014-01-18 02:53:00
10:14 PM,24.4,20.8,86,29.84,5.0,Calm,Calm,-,N/A,Snow,Light Snow,0,2014-01-18 03:14:00
10:34 PM,24.4,20.3,84,29.84,7.0,North,3.5,-,N/A,Snow,Light Snow,350,2014-01-18 03:34:00
10:54 PM,24.3,20.3,85,29.84,10.0,North,3.5,-,N/A,,Overcast,350,2014-01-18 03:54:00
11:14 PM,24.4,20.1,84,29.84,10.0,Calm,Calm,-,N/A,,Overcast,0,2014-01-18 04:14:00
11:34 PM,24.3,19.9,84,29.83,10.0,Calm,Calm,-,N/A,,Overcast,0,2014-01-18 04:34:00
11:54 PM,24.4,19.9,83,29.82,10.0,Calm,Calm,-,N/A,,Overcast,0,2014-01-18 04:54:00